T7ZEM ENTC-EFSI

Flight info

Callsign T7ZEM
Flight time 1h 47m
Altitude 29000
Route MOKAX P853 RIXEM DCT ENOXI DCT VERAG DCT GISUX
Aircraft TBM8/L-SDFGRWY/S

Departure

Time 2026-05-05 17:25
Airport Tromsø Airport (ENTC)

Arrival

Time 2026-05-05 19:13
Airport Seinäjoki Airport (EFSI)
Time Latitude Longitude Altitude Speed Heading
2026-05-05 17:17 69.68528 18.91371 27 ft 0 kts 282°
2026-05-05 17:22 69.68528 18.91370 27 ft 0 kts 281°
2026-05-05 17:22 69.68516 18.91377 27 ft 7 kts 151°
2026-05-05 17:22 69.68477 18.91510 27 ft 13 kts 181°
2026-05-05 17:23 69.68366 18.91504 28 ft 18 kts 180°
2026-05-05 17:23 69.68228 18.91430 29 ft 22 kts 192°
2026-05-05 17:23 69.68064 18.91321 30 ft 26 kts 192°
2026-05-05 17:23 69.67878 18.91197 31 ft 27 kts 197°
2026-05-05 17:24 69.67744 18.91215 32 ft 18 kts 102°
2026-05-05 17:24 69.67771 18.91517 32 ft 21 kts 18°
2026-05-05 17:24 69.68068 18.91714 29 ft 71 kts 13°
2026-05-05 17:24 69.68694 18.92134 85 ft 106 kts 15°
2026-05-05 17:25 69.69476 18.92683 305 ft 126 kts 14°
2026-05-05 17:25 69.70065 18.93108 471 ft 137 kts 15°
2026-05-05 17:25 69.71391 18.94089 820 ft 155 kts 13°
2026-05-05 17:25 69.72481 18.94708 1125 ft 163 kts 12°
2026-05-05 17:26 69.73588 18.95405 1553 ft 164 kts 14°
2026-05-05 17:26 69.74705 18.96142 1935 ft 165 kts 14°
2026-05-05 17:26 69.75835 18.96892 2310 ft 167 kts 15°
2026-05-05 17:26 69.76958 18.97684 2619 ft 171 kts 20°
2026-05-05 17:27 69.77844 18.99815 3030 ft 167 kts 57°
2026-05-05 17:27 69.78167 19.03026 3394 ft 172 kts 90°
2026-05-05 17:27 69.77923 19.06483 3739 ft 177 kts 102°
2026-05-05 17:27 69.77643 19.09951 4117 ft 177 kts 101°
2026-05-05 17:28 69.77366 19.13441 4466 ft 179 kts 102°
2026-05-05 17:28 69.77080 19.16947 4837 ft 179 kts 102°
2026-05-05 17:28 69.76799 19.20413 5178 ft 180 kts 102°
2026-05-05 17:28 69.76512 19.23935 5556 ft 181 kts 102°
2026-05-05 17:29 69.76116 19.27379 5876 ft 185 kts 122°
2026-05-05 17:29 69.75119 19.29700 6244 ft 188 kts 155°
2026-05-05 17:29 69.73822 19.30065 6561 ft 192 kts 189°
2026-05-05 17:29 69.72521 19.29158 6905 ft 193 kts 192°
2026-05-05 17:30 69.71204 19.28260 7210 ft 196 kts 192°
2026-05-05 17:30 69.69874 19.27352 7551 ft 197 kts 192°
2026-05-05 17:30 69.68537 19.26434 7907 ft 197 kts 192°
2026-05-05 17:30 69.67201 19.25515 8238 ft 198 kts 193°
2026-05-05 17:31 69.65857 19.24598 8576 ft 200 kts 193°
2026-05-05 17:31 69.64512 19.23683 8890 ft 202 kts 193°
2026-05-05 17:31 69.63148 19.22756 9255 ft 202 kts 193°
2026-05-05 17:31 69.61773 19.21822 9584 ft 204 kts 193°
2026-05-05 17:32 69.60393 19.20885 9872 ft 205 kts 193°
2026-05-05 17:32 69.59007 19.19947 10178 ft 205 kts 194°
2026-05-05 17:32 69.57617 19.19005 10491 ft 205 kts 194°
2026-05-05 17:32 69.56223 19.18150 10831 ft 205 kts 186°
2026-05-05 17:33 69.54833 19.18944 11138 ft 208 kts 154°
2026-05-05 17:33 69.53566 19.20960 11416 ft 209 kts 150°
2026-05-05 17:33 69.52308 19.22968 11717 ft 210 kts 151°
2026-05-05 17:33 69.51029 19.24997 12016 ft 211 kts 152°
2026-05-05 17:34 69.49740 19.27039 12329 ft 213 kts 152°
2026-05-05 17:34 69.48443 19.29093 12657 ft 214 kts 152°
2026-05-05 17:34 69.47139 19.31154 12951 ft 214 kts 152°
2026-05-05 17:34 69.45838 19.33208 13289 ft 214 kts 152°
2026-05-05 17:35 69.44532 19.35268 13575 ft 215 kts 152°
2026-05-05 17:35 69.43219 19.37333 13852 ft 216 kts 152°
2026-05-05 17:35 69.41901 19.39404 14115 ft 217 kts 152°
2026-05-05 17:35 69.40579 19.41479 14378 ft 217 kts 152°
2026-05-05 17:36 69.39253 19.43556 14634 ft 218 kts 152°
2026-05-05 17:36 69.37922 19.45640 14890 ft 219 kts 152°
2026-05-05 17:36 69.36584 19.47729 15169 ft 220 kts 152°
2026-05-05 17:36 69.35258 19.49784 15424 ft 221 kts 152°
2026-05-05 17:37 69.33913 19.51898 15682 ft 222 kts 152°
2026-05-05 17:37 69.32560 19.54007 15936 ft 222 kts 153°
2026-05-05 17:37 69.31201 19.56114 16190 ft 223 kts 153°
2026-05-05 17:37 69.29841 19.58223 16459 ft 224 kts 153°
2026-05-05 17:38 69.28471 19.60342 16714 ft 225 kts 153°
2026-05-05 17:38 69.27097 19.62468 16968 ft 226 kts 153°
2026-05-05 17:38 69.25717 19.64600 17193 ft 226 kts 153°
2026-05-05 17:38 69.24331 19.66720 17421 ft 227 kts 153°
2026-05-05 17:39 69.22946 19.68877 17664 ft 228 kts 153°
2026-05-05 17:39 69.21553 19.71025 17895 ft 229 kts 153°
2026-05-05 17:39 69.20152 19.73168 18095 ft 230 kts 153°
2026-05-05 17:39 69.18765 19.75291 18299 ft 230 kts 153°
2026-05-05 17:40 69.17355 19.77453 18516 ft 231 kts 153°
2026-05-05 17:40 69.15938 19.79621 18717 ft 233 kts 153°
2026-05-05 17:40 69.14514 19.81791 18946 ft 233 kts 153°
2026-05-05 17:40 69.13089 19.83965 19184 ft 234 kts 153°
2026-05-05 17:41 69.11657 19.86143 19400 ft 235 kts 153°
2026-05-05 17:41 69.10220 19.88326 19605 ft 235 kts 153°
2026-05-05 17:41 69.08779 19.90516 19833 ft 236 kts 153°
2026-05-05 17:41 69.07330 19.92693 20043 ft 237 kts 155°
2026-05-05 17:42 69.05846 19.94687 20253 ft 238 kts 154°
2026-05-05 17:42 69.04386 19.96874 20456 ft 238 kts 153°
2026-05-05 17:42 69.02939 19.98998 20685 ft 238 kts 154°
2026-05-05 17:42 69.01460 20.01077 20915 ft 238 kts 154°
2026-05-05 17:43 68.99977 20.03170 21129 ft 239 kts 154°
2026-05-05 17:43 68.98490 20.05285 21328 ft 240 kts 154°
2026-05-05 17:43 68.96998 20.07403 21529 ft 241 kts 154°
2026-05-05 17:43 68.95500 20.09520 21726 ft 242 kts 154°
2026-05-05 17:44 68.93996 20.11642 21936 ft 243 kts 154°
2026-05-05 17:44 68.92508 20.13740 22124 ft 243 kts 154°
2026-05-05 17:44 68.90995 20.15872 22316 ft 244 kts 154°
2026-05-05 17:44 68.89479 20.18002 22516 ft 245 kts 154°
2026-05-05 17:45 68.87961 20.20133 22737 ft 244 kts 154°
2026-05-05 17:45 68.86443 20.22261 22918 ft 245 kts 154°
2026-05-05 17:45 68.84920 20.24392 23102 ft 246 kts 154°
2026-05-05 17:45 68.83393 20.26528 23285 ft 246 kts 154°
2026-05-05 17:46 68.81863 20.28660 23466 ft 247 kts 154°
2026-05-05 17:46 68.80327 20.30806 23647 ft 248 kts 153°
2026-05-05 17:46 68.78764 20.32812 23813 ft 248 kts 163°
2026-05-05 17:46 68.77119 20.34052 23992 ft 249 kts 166°
2026-05-05 17:47 68.75442 20.35292 24158 ft 250 kts 165°
2026-05-05 17:47 68.73762 20.36594 24331 ft 251 kts 165°
2026-05-05 17:47 68.72077 20.37898 24501 ft 252 kts 165°
2026-05-05 17:47 68.70383 20.39194 24664 ft 253 kts 165°
2026-05-05 17:48 68.68682 20.40492 24823 ft 254 kts 165°
2026-05-05 17:48 68.66979 20.41790 24994 ft 255 kts 165°
2026-05-05 17:48 68.65265 20.43096 25155 ft 256 kts 165°
2026-05-05 17:48 68.63575 20.44381 25310 ft 256 kts 165°
2026-05-05 17:49 68.61853 20.45690 25471 ft 257 kts 165°
2026-05-05 17:49 68.60129 20.46998 25638 ft 258 kts 165°
2026-05-05 17:49 68.58397 20.48305 25784 ft 259 kts 165°
2026-05-05 17:49 68.56660 20.49620 25931 ft 259 kts 165°
2026-05-05 17:50 68.54916 20.50935 26073 ft 260 kts 165°
2026-05-05 17:50 68.53165 20.52253 26205 ft 261 kts 165°
2026-05-05 17:50 68.51408 20.53576 26355 ft 262 kts 165°
2026-05-05 17:50 68.49645 20.54899 26484 ft 263 kts 165°
2026-05-05 17:51 68.47899 20.56208 26616 ft 264 kts 165°
2026-05-05 17:51 68.46124 20.57535 26767 ft 265 kts 165°
2026-05-05 17:51 68.44344 20.58865 26891 ft 266 kts 165°
2026-05-05 17:51 68.42561 20.60196 27009 ft 267 kts 165°
2026-05-05 17:52 68.40769 20.61530 27142 ft 267 kts 165°
2026-05-05 17:52 68.38972 20.62866 27250 ft 268 kts 165°
2026-05-05 17:52 68.37169 20.64204 27369 ft 269 kts 165°
2026-05-05 17:52 68.35360 20.65544 27497 ft 270 kts 165°
2026-05-05 17:53 68.33555 20.66886 27651 ft 268 kts 166°
2026-05-05 17:53 68.31774 20.68195 27758 ft 269 kts 166°
2026-05-05 17:53 68.29962 20.69529 27863 ft 270 kts 166°
2026-05-05 17:53 68.28145 20.70869 27967 ft 271 kts 166°
2026-05-05 17:54 68.26323 20.72209 28069 ft 272 kts 166°
2026-05-05 17:54 68.24495 20.73550 28169 ft 273 kts 166°
2026-05-05 17:54 68.22663 20.74892 28262 ft 273 kts 166°
2026-05-05 17:54 68.20827 20.76233 28352 ft 274 kts 166°
2026-05-05 17:55 68.18987 20.77576 28443 ft 275 kts 166°
2026-05-05 17:55 68.17138 20.78926 28528 ft 276 kts 166°
2026-05-05 17:55 68.15284 20.80275 28591 ft 277 kts 166°
2026-05-05 17:55 68.13435 20.81618 28593 ft 280 kts 166°
2026-05-05 17:56 68.11541 20.82989 28596 ft 283 kts 166°
2026-05-05 17:56 68.09630 20.84375 28599 ft 285 kts 166°
2026-05-05 17:56 68.07705 20.85763 28588 ft 287 kts 166°
2026-05-05 17:56 68.05768 20.87162 28590 ft 289 kts 166°
2026-05-05 17:57 68.03820 20.88571 28591 ft 291 kts 166°
2026-05-05 17:57 68.01861 20.89971 28590 ft 292 kts 166°
2026-05-05 17:57 67.99894 20.91390 28600 ft 293 kts 166°
2026-05-05 17:57 67.97947 20.92783 28602 ft 294 kts 166°
2026-05-05 17:58 67.95973 20.94189 28604 ft 295 kts 166°
2026-05-05 17:58 67.93991 20.95606 28605 ft 295 kts 166°
2026-05-05 17:58 67.92005 20.97023 28590 ft 296 kts 166°
2026-05-05 17:58 67.90017 20.98437 28590 ft 296 kts 166°
2026-05-05 17:59 67.88027 20.99847 28586 ft 296 kts 166°
2026-05-05 17:59 67.86033 21.01264 28586 ft 297 kts 166°
2026-05-05 17:59 67.84036 21.02678 28579 ft 297 kts 166°
2026-05-05 17:59 67.82065 21.04071 28579 ft 297 kts 166°
2026-05-05 18:00 67.80065 21.05475 28578 ft 297 kts 167°
2026-05-05 18:00 67.78067 21.06886 28591 ft 297 kts 167°
2026-05-05 18:00 67.76070 21.08289 28576 ft 297 kts 168°
2026-05-05 18:00 67.74075 21.09689 28577 ft 296 kts 168°
2026-05-05 18:01 67.72083 21.11085 28578 ft 296 kts 167°
2026-05-05 18:01 67.70091 21.12476 28577 ft 296 kts 167°
2026-05-05 18:01 67.68128 21.13852 28577 ft 296 kts 167°
2026-05-05 18:01 67.66111 21.15247 28576 ft 296 kts 167°
2026-05-05 18:02 67.64154 21.16606 28579 ft 296 kts 167°
2026-05-05 18:02 67.62167 21.17992 28579 ft 295 kts 167°
2026-05-05 18:02 67.60179 21.19368 28574 ft 296 kts 167°
2026-05-05 18:02 67.58190 21.20743 28573 ft 296 kts 167°
2026-05-05 18:03 67.56202 21.22117 28576 ft 296 kts 167°
2026-05-05 18:03 67.54213 21.23486 28575 ft 295 kts 167°
2026-05-05 18:03 67.52225 21.24854 28575 ft 295 kts 167°
2026-05-05 18:03 67.50265 21.26198 28575 ft 295 kts 167°
2026-05-05 18:04 67.48280 21.27566 28572 ft 295 kts 167°
2026-05-05 18:04 67.46294 21.28923 28572 ft 295 kts 168°
2026-05-05 18:04 67.44310 21.30278 28566 ft 295 kts 168°
2026-05-05 18:04 67.42328 21.31628 28567 ft 294 kts 168°
2026-05-05 18:05 67.40346 21.32981 28569 ft 294 kts 168°
2026-05-05 18:05 67.38365 21.34328 28570 ft 294 kts 168°
2026-05-05 18:05 67.36388 21.35669 28570 ft 294 kts 168°
2026-05-05 18:05 67.34405 21.37010 28572 ft 295 kts 168°
2026-05-05 18:06 67.32447 21.38336 28571 ft 295 kts 168°
2026-05-05 18:06 67.31106 21.39242 28574 ft 294 kts 168°
2026-05-05 18:06 67.28481 21.41012 28572 ft 294 kts 168°
2026-05-05 18:06 67.26499 21.42346 28571 ft 294 kts 168°
2026-05-05 18:07 67.24518 21.43675 28574 ft 294 kts 168°
2026-05-05 18:07 67.22539 21.45004 28573 ft 294 kts 167°
2026-05-05 18:07 67.20562 21.46329 28572 ft 293 kts 167°
2026-05-05 18:07 67.18587 21.47647 28572 ft 293 kts 167°
2026-05-05 18:08 67.16639 21.48947 28575 ft 293 kts 167°
2026-05-05 18:08 67.14665 21.50264 28575 ft 293 kts 167°
2026-05-05 18:08 67.12693 21.51575 28573 ft 293 kts 167°
2026-05-05 18:08 67.10725 21.52880 28572 ft 293 kts 167°
2026-05-05 18:09 67.08754 21.54187 28574 ft 292 kts 167°
2026-05-05 18:09 67.06784 21.55490 28572 ft 292 kts 167°
2026-05-05 18:09 67.04816 21.56790 28571 ft 292 kts 167°
2026-05-05 18:09 67.02849 21.58089 28571 ft 292 kts 167°
2026-05-05 18:10 67.00882 21.59383 28574 ft 292 kts 167°
2026-05-05 18:10 66.98941 21.60658 28574 ft 292 kts 167°
2026-05-05 18:10 66.96974 21.61949 28574 ft 292 kts 167°
2026-05-05 18:10 66.95008 21.63237 28573 ft 292 kts 167°
2026-05-05 18:11 66.93041 21.64523 28571 ft 292 kts 167°
2026-05-05 18:11 66.91074 21.65788 28565 ft 291 kts 169°
2026-05-05 18:11 66.89071 21.66338 28570 ft 289 kts 178°
2026-05-05 18:11 66.87066 21.66671 28572 ft 289 kts 178°
2026-05-05 18:12 66.85056 21.67057 28575 ft 290 kts 177°
2026-05-05 18:12 66.83047 21.67472 28575 ft 290 kts 177°
2026-05-05 18:12 66.81037 21.67869 28575 ft 290 kts 177°
2026-05-05 18:12 66.79028 21.68258 28575 ft 290 kts 177°
2026-05-05 18:13 66.77019 21.68646 28578 ft 289 kts 177°
2026-05-05 18:13 66.75036 21.69037 28578 ft 290 kts 177°
2026-05-05 18:13 66.73026 21.69428 28577 ft 290 kts 177°
2026-05-05 18:13 66.71016 21.69817 28578 ft 290 kts 177°
2026-05-05 18:14 66.69007 21.70205 28571 ft 289 kts 178°
2026-05-05 18:14 66.67002 21.70596 28575 ft 289 kts 178°
2026-05-05 18:14 66.64997 21.70983 28574 ft 289 kts 177°
2026-05-05 18:14 66.62994 21.71371 28574 ft 289 kts 177°
2026-05-05 18:15 66.60991 21.71756 28575 ft 288 kts 178°
2026-05-05 18:15 66.58992 21.72141 28579 ft 288 kts 178°
2026-05-05 18:15 66.56992 21.72521 28579 ft 288 kts 178°
2026-05-05 18:15 66.54991 21.72907 28578 ft 288 kts 178°
2026-05-05 18:16 66.52996 21.73290 28579 ft 288 kts 178°
2026-05-05 18:16 66.51023 21.73666 28578 ft 288 kts 178°
2026-05-05 18:16 66.49025 21.74048 28578 ft 288 kts 178°
2026-05-05 18:16 66.47027 21.74428 28578 ft 288 kts 178°
2026-05-05 18:17 66.45030 21.74808 28578 ft 288 kts 178°
2026-05-05 18:17 66.43035 21.75187 28578 ft 288 kts 178°
2026-05-05 18:17 66.41038 21.75566 28577 ft 288 kts 178°
2026-05-05 18:17 66.39042 21.75944 28577 ft 288 kts 178°
2026-05-05 18:18 66.37046 21.76320 28580 ft 288 kts 178°
2026-05-05 18:18 66.35051 21.76696 28580 ft 287 kts 178°
2026-05-05 18:18 66.33056 21.77073 28580 ft 287 kts 178°
2026-05-05 18:18 66.31062 21.77448 28580 ft 287 kts 178°
2026-05-05 18:19 66.29093 21.77817 28577 ft 288 kts 178°
2026-05-05 18:19 66.27098 21.78192 28579 ft 287 kts 178°
2026-05-05 18:19 66.25103 21.78564 28579 ft 287 kts 178°
2026-05-05 18:19 66.23108 21.78938 28579 ft 288 kts 178°
2026-05-05 18:20 66.21116 21.79309 28579 ft 288 kts 178°
2026-05-05 18:20 66.19121 21.79682 28579 ft 288 kts 178°
2026-05-05 18:20 66.17125 21.80052 28579 ft 288 kts 178°
2026-05-05 18:20 66.15130 21.80423 28579 ft 287 kts 178°
2026-05-05 18:21 66.13136 21.80793 28581 ft 287 kts 178°
2026-05-05 18:21 66.11141 21.81161 28581 ft 287 kts 178°
2026-05-05 18:21 66.09172 21.81526 28582 ft 287 kts 178°
2026-05-05 18:21 66.07178 21.81894 28581 ft 287 kts 178°
2026-05-05 18:22 66.05184 21.82261 28578 ft 287 kts 178°
2026-05-05 18:22 66.03189 21.82628 28578 ft 287 kts 178°
2026-05-05 18:22 66.01195 21.82995 28578 ft 287 kts 178°
2026-05-05 18:22 65.99201 21.83361 28588 ft 287 kts 178°
2026-05-05 18:23 65.97210 21.83726 28586 ft 287 kts 178°
2026-05-05 18:23 65.95219 21.84088 28586 ft 287 kts 178°
2026-05-05 18:23 65.93254 21.84447 28587 ft 287 kts 178°
2026-05-05 18:23 65.91240 21.84817 28586 ft 287 kts 179°
2026-05-05 18:24 65.89274 21.85172 28589 ft 287 kts 178°
2026-05-05 18:24 65.87283 21.85533 28590 ft 287 kts 178°
2026-05-05 18:24 65.85295 21.85896 28593 ft 286 kts 178°
2026-05-05 18:24 65.83307 21.86255 28594 ft 286 kts 178°
2026-05-05 18:25 65.81319 21.86615 28596 ft 287 kts 179°
2026-05-05 18:25 65.80001 21.86853 28596 ft 286 kts 179°
2026-05-05 18:25 65.77343 21.87331 28597 ft 286 kts 179°
2026-05-05 18:25 65.75355 21.87689 28598 ft 286 kts 179°
2026-05-05 18:26 65.73367 21.88047 28594 ft 286 kts 179°
2026-05-05 18:26 65.71405 21.88399 28597 ft 286 kts 178°
2026-05-05 18:26 65.69417 21.88754 28598 ft 287 kts 179°
2026-05-05 18:26 65.67433 21.89111 28599 ft 286 kts 179°
2026-05-05 18:27 65.65445 21.89466 28600 ft 286 kts 179°
2026-05-05 18:27 65.63458 21.89821 28601 ft 286 kts 179°
2026-05-05 18:27 65.61471 21.90174 28601 ft 286 kts 179°
2026-05-05 18:27 65.59485 21.90527 28603 ft 286 kts 179°
2026-05-05 18:28 65.55511 21.91233 28603 ft 286 kts 179°
2026-05-05 18:28 65.53522 21.91585 28604 ft 287 kts 179°
2026-05-05 18:28 65.51536 21.91936 28603 ft 287 kts 179°
2026-05-05 18:29 65.49545 21.92286 28602 ft 287 kts 179°
2026-05-05 18:29 65.47581 21.92633 28603 ft 287 kts 179°
2026-05-05 18:29 65.45591 21.92984 28603 ft 287 kts 179°
2026-05-05 18:29 65.43600 21.93332 28601 ft 287 kts 179°
2026-05-05 18:30 65.41609 21.93683 28604 ft 287 kts 179°
2026-05-05 18:30 65.39619 21.94030 28603 ft 287 kts 179°
2026-05-05 18:30 65.37629 21.94380 28605 ft 287 kts 179°
2026-05-05 18:30 65.35640 21.94726 28606 ft 287 kts 179°
2026-05-05 18:31 65.33651 21.95073 28608 ft 287 kts 179°
2026-05-05 18:31 65.31662 21.95419 28608 ft 286 kts 179°
2026-05-05 18:31 65.29700 21.95761 28607 ft 286 kts 179°
2026-05-05 18:31 65.27714 21.96105 28613 ft 286 kts 180°
2026-05-05 18:32 65.25732 21.96448 28613 ft 286 kts 180°
2026-05-05 18:32 65.23745 21.96791 28612 ft 286 kts 179°
2026-05-05 18:32 65.21753 21.97138 28608 ft 286 kts 180°
2026-05-05 18:32 65.19770 21.97479 28609 ft 286 kts 180°
2026-05-05 18:33 65.17782 21.97821 28611 ft 286 kts 180°
2026-05-05 18:33 65.15795 21.98163 28610 ft 286 kts 180°
2026-05-05 18:33 65.13809 21.98504 28606 ft 286 kts 180°
2026-05-05 18:33 65.11827 21.99001 28614 ft 288 kts 174°
2026-05-05 18:34 65.09857 21.99885 28619 ft 288 kts 174°
2026-05-05 18:34 65.07909 22.00706 28620 ft 288 kts 174°
2026-05-05 18:34 65.05934 22.01522 28618 ft 288 kts 174°
2026-05-05 18:34 65.03960 22.02358 28615 ft 288 kts 174°
2026-05-05 18:35 65.01986 22.03195 28614 ft 288 kts 174°
2026-05-05 18:35 65.00012 22.04028 28620 ft 288 kts 174°
2026-05-05 18:35 64.98037 22.04857 28624 ft 288 kts 174°
2026-05-05 18:35 64.96066 22.05686 28621 ft 288 kts 174°
2026-05-05 18:36 64.94091 22.06514 28617 ft 288 kts 174°
2026-05-05 18:36 64.92116 22.07343 28614 ft 288 kts 174°
2026-05-05 18:36 64.90170 22.08156 28616 ft 288 kts 174°
2026-05-05 18:36 64.88197 22.08981 28620 ft 288 kts 174°
2026-05-05 18:37 64.86224 22.09803 28623 ft 288 kts 174°
2026-05-05 18:37 64.84255 22.10625 28623 ft 288 kts 174°
2026-05-05 18:37 64.82281 22.11444 28619 ft 288 kts 174°
2026-05-05 18:37 64.80304 22.12266 28619 ft 288 kts 174°
2026-05-05 18:38 64.78335 22.13081 28618 ft 288 kts 174°
2026-05-05 18:38 64.76361 22.13899 28622 ft 288 kts 174°
2026-05-05 18:38 64.74387 22.14715 28621 ft 288 kts 174°
2026-05-05 18:38 64.72439 22.15519 28620 ft 288 kts 174°
2026-05-05 18:39 64.70465 22.16333 28634 ft 288 kts 174°
2026-05-05 18:39 64.68491 22.17146 28633 ft 288 kts 174°
2026-05-05 18:39 64.66516 22.17956 28632 ft 288 kts 174°
2026-05-05 18:39 64.64542 22.18767 28630 ft 288 kts 174°
2026-05-05 18:40 64.62567 22.19576 28625 ft 288 kts 174°
2026-05-05 18:40 64.60592 22.20384 28624 ft 288 kts 174°
2026-05-05 18:40 64.58617 22.21192 28624 ft 288 kts 174°
2026-05-05 18:40 64.56649 22.21995 28633 ft 287 kts 175°
2026-05-05 18:41 64.54676 22.22797 28619 ft 287 kts 176°
2026-05-05 18:41 64.52743 22.23584 28633 ft 286 kts 176°
2026-05-05 18:41 64.50779 22.24381 28633 ft 286 kts 176°
2026-05-05 18:41 64.48816 22.25177 28633 ft 286 kts 176°
2026-05-05 18:42 64.46852 22.25974 28636 ft 286 kts 176°
2026-05-05 18:42 64.44888 22.26767 28635 ft 287 kts 176°
2026-05-05 18:42 64.42924 22.27561 28635 ft 287 kts 176°
2026-05-05 18:42 64.40959 22.28353 28635 ft 287 kts 176°
2026-05-05 18:43 64.38995 22.29143 28635 ft 287 kts 176°
2026-05-05 18:43 64.37030 22.29934 28635 ft 287 kts 176°
2026-05-05 18:43 64.35092 22.30712 28635 ft 287 kts 176°
2026-05-05 18:43 64.33127 22.31500 28635 ft 287 kts 176°
2026-05-05 18:44 64.31161 22.32286 28638 ft 287 kts 176°
2026-05-05 18:44 64.29196 22.33072 28643 ft 287 kts 176°
2026-05-05 18:44 64.27235 22.33855 28643 ft 287 kts 176°
2026-05-05 18:44 64.25269 22.34637 28643 ft 287 kts 176°
2026-05-05 18:45 64.23303 22.35421 28649 ft 287 kts 176°
2026-05-05 18:45 64.21337 22.36204 28638 ft 286 kts 177°
2026-05-05 18:45 64.19377 22.36984 28649 ft 286 kts 177°
2026-05-05 18:45 64.17416 22.37756 28647 ft 286 kts 177°
2026-05-05 18:46 64.15480 22.38522 28652 ft 286 kts 177°
2026-05-05 18:46 64.13519 22.39297 28657 ft 286 kts 177°
2026-05-05 18:46 64.11557 22.40073 28656 ft 286 kts 177°
2026-05-05 18:46 64.09596 22.40845 28658 ft 286 kts 177°
2026-05-05 18:47 64.07633 22.41617 28657 ft 286 kts 177°
2026-05-05 18:47 64.05671 22.42387 28654 ft 286 kts 177°
2026-05-05 18:47 64.03709 22.43158 28653 ft 286 kts 177°
2026-05-05 18:47 64.01751 22.43926 28656 ft 286 kts 177°
2026-05-05 18:48 63.99789 22.44693 28658 ft 286 kts 177°
2026-05-05 18:48 63.97822 22.45462 28657 ft 286 kts 177°
2026-05-05 18:48 63.95890 22.46216 28640 ft 286 kts 178°
2026-05-05 18:48 63.93932 22.46977 28662 ft 285 kts 178°
2026-05-05 18:49 63.91976 22.47740 28665 ft 285 kts 178°
2026-05-05 18:49 63.90021 22.48499 28665 ft 285 kts 178°
2026-05-05 18:49 63.88066 22.49257 28668 ft 285 kts 178°
2026-05-05 18:49 63.86112 22.50015 28648 ft 285 kts 179°
2026-05-05 18:50 63.84166 22.50770 28675 ft 283 kts 179°
2026-05-05 18:50 63.82224 22.51518 28676 ft 283 kts 179°
2026-05-05 18:50 63.80309 22.52255 28676 ft 283 kts 179°
2026-05-05 18:50 63.78374 22.53002 28676 ft 283 kts 179°
2026-05-05 18:51 63.76432 22.53748 28674 ft 282 kts 179°
2026-05-05 18:51 63.74499 22.54492 28674 ft 282 kts 179°
2026-05-05 18:51 63.72564 22.55233 28675 ft 282 kts 179°
2026-05-05 18:51 63.70629 22.55975 28679 ft 282 kts 179°
2026-05-05 18:52 63.68696 22.56715 28678 ft 282 kts 179°
2026-05-05 18:52 63.66763 22.57453 28679 ft 282 kts 179°
2026-05-05 18:52 63.64831 22.58189 28680 ft 282 kts 179°
2026-05-05 18:52 63.62921 22.58914 28468 ft 286 kts 179°
2026-05-05 18:53 63.60909 22.59652 27916 ft 299 kts 179°
2026-05-05 18:53 63.58824 22.60445 27384 ft 308 kts 178°
2026-05-05 18:53 63.56687 22.61272 26865 ft 315 kts 177°
2026-05-05 18:53 63.54518 22.62100 26346 ft 317 kts 177°
2026-05-05 18:54 63.52345 22.62921 25843 ft 317 kts 176°
2026-05-05 18:54 63.50171 22.63740 25313 ft 317 kts 177°
2026-05-05 18:54 63.47998 22.64558 24822 ft 317 kts 177°
2026-05-05 18:54 63.45823 22.65376 24338 ft 317 kts 176°
2026-05-05 18:55 63.43679 22.66183 23874 ft 317 kts 176°
2026-05-05 18:55 63.41507 22.66997 23399 ft 316 kts 176°
2026-05-05 18:55 63.39342 22.67808 22849 ft 315 kts 176°
2026-05-05 18:55 63.37188 22.68614 22272 ft 313 kts 175°
2026-05-05 18:56 63.35048 22.69414 21701 ft 311 kts 175°
2026-05-05 18:56 63.32923 22.70207 21142 ft 309 kts 175°
2026-05-05 18:56 63.30813 22.70992 20595 ft 306 kts 175°
2026-05-05 18:56 63.28746 22.71761 20074 ft 304 kts 175°
2026-05-05 18:57 63.26667 22.72532 19545 ft 302 kts 175°
2026-05-05 18:57 63.24604 22.73298 19026 ft 299 kts 174°
2026-05-05 18:57 63.22556 22.74057 18515 ft 297 kts 174°
2026-05-05 18:57 63.20526 22.74807 18009 ft 295 kts 174°
2026-05-05 18:58 63.18503 22.75555 17439 ft 293 kts 174°
2026-05-05 18:58 63.16497 22.76295 16866 ft 291 kts 174°
2026-05-05 18:58 63.14505 22.77026 16312 ft 289 kts 174°
2026-05-05 18:58 63.12529 22.77754 15753 ft 287 kts 174°
2026-05-05 18:59 63.10568 22.78473 15221 ft 285 kts 174°
2026-05-05 18:59 63.08621 22.79189 14695 ft 283 kts 174°
2026-05-05 18:59 63.06714 22.79887 14182 ft 281 kts 174°
2026-05-05 18:59 63.04795 22.80588 13675 ft 279 kts 174°
2026-05-05 19:00 63.02923 22.81660 13118 ft 280 kts 159°
2026-05-05 19:00 63.01174 22.83508 12560 ft 279 kts 157°
2026-05-05 19:00 62.99419 22.85276 12016 ft 276 kts 159°
2026-05-05 19:00 62.97665 22.86975 11479 ft 275 kts 159°
2026-05-05 19:01 62.95930 22.88698 10952 ft 273 kts 158°
2026-05-05 19:01 62.94209 22.90416 10427 ft 271 kts 158°
2026-05-05 19:01 62.92522 22.92090 9927 ft 269 kts 159°
2026-05-05 19:01 62.90845 22.93748 9682 ft 258 kts 159°
2026-05-05 19:02 62.89228 22.95334 9126 ft 246 kts 160°
2026-05-05 19:02 62.87713 22.96802 8574 ft 232 kts 159°
2026-05-05 19:02 62.86268 22.98256 8026 ft 225 kts 159°
2026-05-05 19:02 62.84856 22.99664 7495 ft 221 kts 160°
2026-05-05 19:03 62.83477 23.01022 7085 ft 216 kts 160°
2026-05-05 19:03 62.82063 23.02442 6705 ft 230 kts 159°
2026-05-05 19:03 62.80575 23.03894 6330 ft 237 kts 160°
2026-05-05 19:03 62.79056 23.05360 5942 ft 240 kts 160°
2026-05-05 19:04 62.77553 23.06832 5551 ft 241 kts 160°
2026-05-05 19:04 62.76025 23.08331 5156 ft 241 kts 160°
2026-05-05 19:04 62.74500 23.09823 4763 ft 240 kts 160°
2026-05-05 19:04 62.72981 23.11307 4370 ft 238 kts 160°
2026-05-05 19:05 62.71472 23.12780 3966 ft 237 kts 160°
2026-05-05 19:05 62.69971 23.14240 3569 ft 235 kts 160°
2026-05-05 19:05 62.68491 23.15676 3179 ft 228 kts 161°
2026-05-05 19:05 62.67068 23.17051 2783 ft 221 kts 161°
2026-05-05 19:06 62.65706 23.18389 2502 ft 212 kts 161°
2026-05-05 19:06 62.64400 23.19594 2489 ft 199 kts 169°
2026-05-05 19:06 62.63079 23.19603 2491 ft 185 kts 200°
2026-05-05 19:06 62.61966 23.18415 2491 ft 174 kts 225°
2026-05-05 19:07 62.61138 23.16557 2493 ft 171 kts 232°
2026-05-05 19:07 62.60594 23.15318 2494 ft 171 kts 231°
2026-05-05 19:07 62.59496 23.12825 2493 ft 171 kts 231°
2026-05-05 19:07 62.58678 23.10955 2491 ft 170 kts 232°
2026-05-05 19:08 62.58153 23.08778 2492 ft 161 kts 264°
2026-05-05 19:08 62.58263 23.06526 2388 ft 145 kts 290°
2026-05-05 19:08 62.58833 23.04770 2250 ft 143 kts 312°
2026-05-05 19:08 62.59548 23.03329 2116 ft 141 kts 310°
2026-05-05 19:09 62.60250 23.01855 1982 ft 140 kts 310°
2026-05-05 19:09 62.60952 23.00401 1903 ft 137 kts 310°
2026-05-05 19:09 62.61630 22.98995 1899 ft 133 kts 310°
2026-05-05 19:09 62.62294 22.97616 1895 ft 131 kts 309°
2026-05-05 19:10 62.62952 22.96251 1892 ft 130 kts 310°
2026-05-05 19:10 62.63582 22.94949 1899 ft 119 kts 309°
2026-05-05 19:10 62.64183 22.93693 1710 ft 120 kts 309°
2026-05-05 19:10 62.64771 22.92500 1485 ft 112 kts 309°
2026-05-05 19:11 62.65320 22.91348 1252 ft 111 kts 311°
2026-05-05 19:11 62.65855 22.90235 1041 ft 102 kts 309°
2026-05-05 19:11 62.66357 22.89145 833 ft 103 kts 309°
2026-05-05 19:11 62.66879 22.88058 659 ft 104 kts 312°
2026-05-05 19:12 62.67402 22.87034 546 ft 99 kts 310°
2026-05-05 19:12 62.67884 22.85994 465 ft 97 kts 311°
2026-05-05 19:12 62.68370 22.84989 372 ft 97 kts 311°
2026-05-05 19:12 62.68808 22.84056 303 ft 70 kts 322°
2026-05-05 19:13 62.69133 22.83404 305 ft 57 kts 318°
2026-05-05 19:13 62.69352 22.82912 309 ft 29 kts 279°
2026-05-05 19:13 62.69274 22.82729 307 ft 12 kts 213°
2026-05-05 19:13 62.69183 22.82793 306 ft 13 kts 193°
2026-05-05 19:14 62.69153 22.82734 306 ft 0 kts 227°